Time,TemperatureF,DewpointF,PressureIn,WindDirection,WindDirectionDegrees,WindSpeedMPH,WindSpeedGustMPH,Humidity,HourlyPrecipIn,Conditions,Clouds,dailyrainin,SoftwareType,DateUTC
2013-05-04 00:01:00,60.6,36.7,29.88,West,281,7.0,8.0,30,0.00,,,0.00,meteohub,2013-05-04 07:01:00,
2013-05-04 00:06:00,61.0,36.7,29.88,SW,229,7.0,9.0,30,0.00,,,0.00,meteohub,2013-05-04 07:06:00,
2013-05-04 00:11:00,61.0,36.5,29.88,West,262,6.0,9.0,30,0.00,,,0.00,meteohub,2013-05-04 07:11:00,
2013-05-04 00:17:00,61.2,36.5,29.88,WSW,257,6.0,9.0,30,0.00,,,0.00,meteohub,2013-05-04 07:17:00,
2013-05-04 00:22:00,61.2,36.5,29.88,WSW,246,6.0,8.0,30,0.00,,,0.00,meteohub,2013-05-04 07:22:00,
2013-05-04 00:27:00,61.2,36.5,29.88,WSW,250,6.0,8.0,30,0.00,,,0.00,meteohub,2013-05-04 07:27:00,
2013-05-04 00:32:00,61.2,36.5,29.88,WSW,249,6.0,7.0,30,0.00,,,0.00,meteohub,2013-05-04 07:32:00,
2013-05-04 00:37:00,61.2,36.3,29.87,WSW,238,7.0,8.0,30,0.00,,,0.00,meteohub,2013-05-04 07:37:00,
2013-05-04 00:42:00,61.2,36.3,29.87,WSW,250,6.0,8.0,30,0.00,,,0.00,meteohub,2013-05-04 07:42:00,
2013-05-04 00:47:00,61.2,36.1,29.87,WSW,252,6.0,8.0,30,0.00,,,0.00,meteohub,2013-05-04 07:47:00,
2013-05-04 00:52:00,61.0,36.1,29.87,WSW,245,8.0,8.0,30,0.00,,,0.00,meteohub,2013-05-04 07:52:00,
2013-05-04 00:58:00,61.0,36.0,29.86,West,259,8.0,9.0,30,0.00,,,0.00,meteohub,2013-05-04 07:58:00,
2013-05-04 01:03:00,60.8,36.0,29.86,WSW,252,7.0,9.0,30,0.00,,,0.00,meteohub,2013-05-04 08:03:00,
2013-05-04 01:09:00,60.4,36.0,29.86,SW,226,7.0,10.0,30,0.00,,,0.00,meteohub,2013-05-04 08:09:00,
2013-05-04 01:14:00,60.1,36.0,29.86,WSW,248,5.0,11.0,30,0.00,,,0.00,meteohub,2013-05-04 08:14:00,
2013-05-04 01:20:00,59.5,35.1,29.86,WSW,253,7.0,11.0,29,0.00,,,0.00,meteohub,2013-05-04 08:20:00,
2013-05-04 01:25:00,59.4,35.1,29.85,West,259,8.0,10.0,29,0.00,,,0.00,meteohub,2013-05-04 08:25:00,
2013-05-04 01:31:00,59.5,34.9,29.85,NW,307,7.0,10.0,29,0.00,,,0.00,meteohub,2013-05-04 08:31:00,
2013-05-04 01:36:00,59.4,34.9,29.85,WSW,240,6.0,11.0,29,0.00,,,0.00,meteohub,2013-05-04 08:36:00,
2013-05-04 01:41:00,59.5,34.9,29.85,WSW,250,9.0,11.0,29,0.00,,,0.00,meteohub,2013-05-04 08:41:00,
2013-05-04 01:46:00,59.4,34.9,29.85,WSW,248,7.0,10.0,29,0.00,,,0.00,meteohub,2013-05-04 08:46:00,
2013-05-04 01:52:00,59.4,34.7,29.84,WSW,248,8.0,10.0,29,0.00,,,0.00,meteohub,2013-05-04 08:52:00,
2013-05-04 01:57:00,59.2,34.7,29.84,West,260,6.0,10.0,29,0.00,,,0.00,meteohub,2013-05-04 08:57:00,
2013-05-04 02:02:00,58.6,34.7,29.84,WSW,252,7.0,10.0,29,0.00,,,0.00,meteohub,2013-05-04 09:02:00,
2013-05-04 02:07:00,58.1,34.5,29.84,WSW,240,6.0,10.0,29,0.00,,,0.00,meteohub,2013-05-04 09:07:00,
2013-05-04 02:12:00,57.9,34.5,29.83,WSW,257,7.0,10.0,29,0.00,,,0.00,meteohub,2013-05-04 09:12:00,
2013-05-04 02:17:00,57.9,34.3,29.83,WSW,249,5.0,10.0,29,0.00,,,0.00,meteohub,2013-05-04 09:17:00,
2013-05-04 02:23:00,57.9,34.3,29.83,West,262,7.0,11.0,29,0.00,,,0.00,meteohub,2013-05-04 09:23:00,
2013-05-04 02:28:00,57.9,34.3,29.83,WSW,240,11.0,11.0,29,0.00,,,0.00,meteohub,2013-05-04 09:28:00,
2013-05-04 02:33:00,57.7,34.2,29.83,SSE,154,6.0,11.0,29,0.00,,,0.00,meteohub,2013-05-04 09:33:00,
2013-05-04 02:39:00,57.6,34.2,29.83,WSW,248,11.0,11.0,29,0.00,,,0.00,meteohub,2013-05-04 09:39:00,
2013-05-04 02:44:00,57.6,34.2,29.83,WSW,238,8.0,13.0,29,0.00,,,0.00,meteohub,2013-05-04 09:44:00,
2013-05-04 02:49:00,57.6,34.2,29.83,North,357,8.0,13.0,29,0.00,,,0.00,meteohub,2013-05-04 09:49:00,
2013-05-04 02:55:00,57.9,34.2,29.82,SW,236,12.0,13.0,29,0.00,,,0.00,meteohub,2013-05-04 09:55:00,
2013-05-04 03:00:00,57.7,34.2,29.82,East,98,10.0,14.0,29,0.00,,,0.00,meteohub,2013-05-04 10:00:00,
2013-05-04 03:06:00,57.9,34.2,29.82,WNW,294,9.0,14.0,29,0.00,,,0.00,meteohub,2013-05-04 10:06:00,
2013-05-04 03:11:00,57.7,34.0,29.82,WSW,240,12.0,18.0,29,0.00,,,0.00,meteohub,2013-05-04 10:11:00,
2013-05-04 03:17:00,57.6,34.0,29.82,West,278,8.0,18.0,29,0.00,,,0.00,meteohub,2013-05-04 10:17:00,
2013-05-04 03:22:00,57.2,34.0,29.81,WSW,249,10.0,18.0,29,0.00,,,0.00,meteohub,2013-05-04 10:22:00,
2013-05-04 03:27:00,56.8,33.8,29.81,SW,232,10.0,15.0,29,0.00,,,0.00,meteohub,2013-05-04 10:27:00,
2013-05-04 03:32:00,56.7,33.8,29.81,NW,323,9.0,17.0,29,0.00,,,0.00,meteohub,2013-05-04 10:32:00,
2013-05-04 03:38:00,56.7,33.6,29.81,East,88,11.0,17.0,29,0.00,,,0.00,meteohub,2013-05-04 10:38:00,
2013-05-04 03:43:00,56.5,33.6,29.81,WNW,287,10.0,17.0,29,0.00,,,0.00,meteohub,2013-05-04 10:43:00,
2013-05-04 03:49:00,56.5,33.6,29.81,WSW,245,11.0,16.0,29,0.00,,,0.00,meteohub,2013-05-04 10:49:00,
2013-05-04 03:54:00,56.5,33.4,29.80,WSW,246,14.0,16.0,29,0.00,,,0.00,meteohub,2013-05-04 10:54:00,
2013-05-04 03:59:00,56.1,33.4,29.80,NNW,338,11.0,16.0,29,0.00,,,0.00,meteohub,2013-05-04 10:59:00,
2013-05-04 04:05:00,56.1,33.4,29.80,North,358,7.0,16.0,29,0.00,,,0.00,meteohub,2013-05-04 11:05:00,
2013-05-04 04:10:00,56.1,33.3,29.80,NNE,16,11.0,18.0,29,0.00,,,0.00,meteohub,2013-05-04 11:10:00,
2013-05-04 04:15:00,56.3,33.3,29.80,WSW,252,7.0,18.0,29,0.00,,,0.00,meteohub,2013-05-04 11:15:00,
2013-05-04 04:21:00,56.3,33.3,29.80,West,266,11.0,20.0,29,0.00,,,0.00,meteohub,2013-05-04 11:21:00,
2013-05-04 04:26:00,56.3,33.3,29.80,SW,232,16.0,20.0,29,0.00,,,0.00,meteohub,2013-05-04 11:26:00,
2013-05-04 04:32:00,56.3,33.1,29.80,SW,236,14.0,20.0,29,0.00,,,0.00,meteohub,2013-05-04 11:32:00,
2013-05-04 04:37:00,56.3,33.1,29.80,WSW,248,13.0,18.0,29,0.00,,,0.00,meteohub,2013-05-04 11:37:00,
2013-05-04 04:42:00,56.5,33.1,29.79,WSW,243,17.0,18.0,29,0.00,,,0.00,meteohub,2013-05-04 11:42:00,
2013-05-04 04:47:00,56.5,33.1,29.79,SE,129,12.0,18.0,29,0.00,,,0.00,meteohub,2013-05-04 11:47:00,
2013-05-04 04:52:00,56.3,33.1,29.79,West,266,9.0,18.0,29,0.00,,,0.00,meteohub,2013-05-04 11:52:00,
2013-05-04 04:58:00,56.1,32.9,29.79,WSW,245,12.0,17.0,29,0.00,,,0.00,meteohub,2013-05-04 11:58:00,
2013-05-04 05:04:00,56.1,32.9,29.79,WSW,248,14.0,17.0,29,0.00,,,0.00,meteohub,2013-05-04 12:04:00,
2013-05-04 05:09:00,55.8,32.9,29.79,West,266,15.0,17.0,29,0.00,,,0.00,meteohub,2013-05-04 12:09:00,
2013-05-04 05:14:00,55.6,32.9,29.79,SW,219,12.0,18.0,29,0.00,,,0.00,meteohub,2013-05-04 12:14:00,
2013-05-04 05:20:00,55.0,32.7,29.79,NW,326,12.0,21.0,29,0.00,,,0.00,meteohub,2013-05-04 12:20:00,
2013-05-04 05:25:00,54.9,32.7,29.79,NW,309,11.0,21.0,29,0.00,,,0.00,meteohub,2013-05-04 12:25:00,
2013-05-04 05:30:00,54.7,32.7,29.79,West,264,17.0,22.0,29,0.00,,,0.00,meteohub,2013-05-04 12:30:00,
2013-05-04 05:36:00,54.9,32.7,29.79,WSW,238,19.0,22.0,29,0.00,,,0.00,meteohub,2013-05-04 12:36:00,
2013-05-04 05:42:00,54.7,32.5,29.79,West,266,14.0,23.0,29,0.00,,,0.00,meteohub,2013-05-04 12:42:00,
2013-05-04 05:48:00,54.7,32.5,29.80,WNW,298,14.0,23.0,29,0.00,,,0.00,meteohub,2013-05-04 12:48:00,
2013-05-04 05:53:00,54.5,32.5,29.79,West,274,15.0,23.0,29,0.00,,,0.00,meteohub,2013-05-04 12:53:00,
2013-05-04 05:58:00,54.7,32.4,29.79,SW,236,12.0,21.0,29,0.00,,,0.00,meteohub,2013-05-04 12:58:00,
2013-05-04 06:03:00,54.7,32.4,29.79,WNW,286,12.0,20.0,29,0.00,,,0.00,meteohub,2013-05-04 13:03:00,
2013-05-04 06:05:00,54.7,32.4,29.79,SW,230,11.0,19.0,29,0.00,,,0.00,meteohub,2013-05-04 13:05:00,
2013-05-04 06:10:00,55.0,32.4,29.80,West,277,9.0,19.0,29,0.00,,,0.00,meteohub,2013-05-04 13:10:00,
2013-05-04 06:16:00,55.2,32.4,29.80,SW,235,15.0,19.0,29,0.00,,,0.00,meteohub,2013-05-04 13:16:00,
2013-05-04 06:21:00,55.6,32.2,29.80,WSW,255,14.0,19.0,29,0.00,,,0.00,meteohub,2013-05-04 13:21:00,
2013-05-04 06:26:00,55.8,32.2,29.80,NNE,19,13.0,19.0,29,0.00,,,0.00,meteohub,2013-05-04 13:26:00,
2013-05-04 06:32:00,55.8,32.0,29.80,West,281,13.0,19.0,29,0.00,,,0.00,meteohub,2013-05-04 13:32:00,
2013-05-04 06:37:00,55.9,32.0,29.80,WNW,300,12.0,19.0,29,0.00,,,0.00,meteohub,2013-05-04 13:37:00,
2013-05-04 06:42:00,56.1,32.0,29.80,WSW,246,13.0,18.0,29,0.00,,,0.00,meteohub,2013-05-04 13:42:00,
2013-05-04 06:47:00,56.3,32.0,29.81,SW,235,17.0,18.0,29,0.00,,,0.00,meteohub,2013-05-04 13:47:00,
2013-05-04 06:53:00,56.7,32.0,29.81,West,264,13.0,18.0,29,0.00,,,0.00,meteohub,2013-05-04 13:53:00,
2013-05-04 06:58:00,56.8,32.0,29.81,NNE,29,8.0,18.0,29,0.00,,,0.00,meteohub,2013-05-04 13:58:00,
2013-05-04 07:03:00,57.0,32.0,29.81,WSW,252,14.0,19.0,29,0.00,,,0.00,meteohub,2013-05-04 14:03:00,
2013-05-04 07:09:00,57.4,32.0,29.81,NW,314,9.0,19.0,29,0.00,,,0.00,meteohub,2013-05-04 14:09:00,
2013-05-04 07:14:00,57.7,32.0,29.81,WNW,291,11.0,17.0,29,0.00,,,0.00,meteohub,2013-05-04 14:14:00,
2013-05-04 07:19:00,57.9,31.8,29.81,WSW,248,14.0,17.0,29,0.00,,,0.00,meteohub,2013-05-04 14:19:00,
2013-05-04 07:24:00,58.1,31.8,29.81,WSW,255,9.0,17.0,29,0.00,,,0.00,meteohub,2013-05-04 14:24:00,
2013-05-04 07:30:00,58.3,31.8,29.81,West,270,11.0,18.0,29,0.00,,,0.00,meteohub,2013-05-04 14:30:00,
2013-05-04 07:35:00,58.5,31.8,29.81,East,82,7.0,18.0,29,0.00,,,0.00,meteohub,2013-05-04 14:35:00,
2013-05-04 07:40:00,58.6,31.8,29.82,NNE,30,12.0,18.0,29,0.00,,,0.00,meteohub,2013-05-04 14:40:00,
2013-05-04 07:46:00,58.8,31.8,29.82,WSW,246,14.0,17.0,29,0.00,,,0.00,meteohub,2013-05-04 14:46:00,
2013-05-04 07:51:00,59.2,31.8,29.82,North,351,12.0,17.0,29,0.00,,,0.00,meteohub,2013-05-04 14:51:00,
2013-05-04 07:57:00,59.4,31.6,29.82,South,177,8.0,19.0,29,0.00,,,0.00,meteohub,2013-05-04 14:57:00,
2013-05-04 08:02:00,59.5,31.6,29.82,NW,315,4.0,19.0,29,0.00,,,0.00,meteohub,2013-05-04 15:02:00,
2013-05-04 08:07:00,59.9,31.6,29.82,NW,304,6.0,18.0,29,0.00,,,0.00,meteohub,2013-05-04 15:07:00,
2013-05-04 08:12:00,60.3,31.6,29.82,WSW,255,10.0,18.0,29,0.00,,,0.00,meteohub,2013-05-04 15:12:00,
2013-05-04 08:17:00,60.3,31.6,29.82,NW,309,8.0,16.0,29,0.00,,,0.00,meteohub,2013-05-04 15:17:00,
2013-05-04 08:22:00,60.4,31.6,29.82,NNW,345,8.0,20.0,29,0.00,,,0.00,meteohub,2013-05-04 15:22:00,
2013-05-04 08:27:00,60.4,31.6,29.82,NNE,13,6.0,20.0,29,0.00,,,0.00,meteohub,2013-05-04 15:27:00,
2013-05-04 08:33:00,61.2,31.6,29.82,NW,316,5.0,20.0,29,0.00,,,0.00,meteohub,2013-05-04 15:33:00,
2013-05-04 08:38:00,61.3,31.6,29.82,WSW,253,8.0,18.0,29,0.00,,,0.00,meteohub,2013-05-04 15:38:00,
2013-05-04 08:44:00,61.9,31.6,29.82,North,358,5.0,16.0,29,0.00,,,0.00,meteohub,2013-05-04 15:44:00,
2013-05-04 08:49:00,62.1,31.6,29.82,ENE,57,8.0,15.0,29,0.00,,,0.00,meteohub,2013-05-04 15:49:00,
2013-05-04 08:55:00,62.1,31.6,29.83,NW,321,13.0,17.0,29,0.00,,,0.00,meteohub,2013-05-04 15:55:00,
2013-05-04 09:00:00,62.2,31.6,29.83,SE,131,7.0,17.0,29,0.00,,,0.00,meteohub,2013-05-04 16:00:00,
2013-05-04 09:06:00,62.8,31.6,29.82,NNE,25,8.0,14.0,29,0.00,,,0.00,meteohub,2013-05-04 16:06:00,
2013-05-04 09:11:00,63.0,31.6,29.83,WSW,245,15.0,15.0,29,0.00,,,0.00,meteohub,2013-05-04 16:11:00,
2013-05-04 09:17:00,62.8,31.6,29.83,ESE,104,16.0,19.0,29,0.00,,,0.00,meteohub,2013-05-04 16:17:00,
2013-05-04 09:22:00,62.4,31.6,29.83,NW,309,8.0,20.0,29,0.00,,,0.00,meteohub,2013-05-04 16:22:00,
2013-05-04 09:27:00,63.0,31.6,29.83,NE,50,9.0,20.0,29,0.00,,,0.00,meteohub,2013-05-04 16:27:00,
2013-05-04 09:32:00,63.0,31.6,29.82,NNW,328,6.0,20.0,29,0.00,,,0.00,meteohub,2013-05-04 16:32:00,
2013-05-04 09:37:00,63.1,31.6,29.83,NNW,342,5.0,16.0,29,0.00,,,0.00,meteohub,2013-05-04 16:37:00,
2013-05-04 09:43:00,63.7,31.6,29.83,SW,217,12.0,17.0,29,0.00,,,0.00,meteohub,2013-05-04 16:43:00,
2013-05-04 09:48:00,64.0,31.6,29.83,NNW,328,10.0,17.0,29,0.00,,,0.00,meteohub,2013-05-04 16:48:00,
2013-05-04 09:53:00,64.4,31.6,29.83,West,273,9.0,17.0,29,0.00,,,0.00,meteohub,2013-05-04 16:53:00,
2013-05-04 09:59:00,64.8,31.6,29.83,SW,225,15.0,17.0,29,0.00,,,0.00,meteohub,2013-05-04 16:59:00,
2013-05-04 10:01:00,64.6,31.6,29.83,ENE,74,15.0,17.0,29,0.00,,,0.00,meteohub,2013-05-04 17:01:00,
2013-05-04 10:07:00,64.2,31.6,29.83,WNW,285,9.0,23.0,29,0.00,,,0.00,meteohub,2013-05-04 17:07:00,
2013-05-04 10:12:00,64.9,32.4,29.83,East,84,9.0,23.0,30,0.00,,,0.00,meteohub,2013-05-04 17:12:00,
2013-05-04 10:17:00,64.6,32.4,29.83,South,177,5.0,22.0,30,0.00,,,0.00,meteohub,2013-05-04 17:17:00,
2013-05-04 10:22:00,64.6,32.4,29.83,NNW,333,5.0,22.0,30,0.00,,,0.00,meteohub,2013-05-04 17:22:00,
2013-05-04 10:27:00,65.1,32.4,29.83,WSW,238,16.0,22.0,30,0.00,,,0.00,meteohub,2013-05-04 17:27:00,
2013-05-04 10:33:00,65.7,32.5,29.83,NNW,346,7.0,23.0,30,0.00,,,0.00,meteohub,2013-05-04 17:33:00,
2013-05-04 10:39:00,65.5,32.5,29.83,WSW,252,16.0,23.0,30,0.00,,,0.00,meteohub,2013-05-04 17:39:00,
2013-05-04 10:44:00,65.1,32.5,29.83,NW,323,14.0,24.0,30,0.00,,,0.00,meteohub,2013-05-04 17:44:00,
2013-05-04 10:50:00,65.7,32.5,29.83,ENE,63,10.0,24.0,30,0.00,,,0.00,meteohub,2013-05-04 17:50:00,
2013-05-04 10:55:00,65.7,32.5,29.83,SW,221,12.0,24.0,30,0.00,,,0.00,meteohub,2013-05-04 17:55:00,
2013-05-04 11:01:00,66.4,32.5,29.83,North,6,12.0,21.0,30,0.00,,,0.00,meteohub,2013-05-04 18:01:00,
2013-05-04 11:06:00,66.2,32.5,29.83,WNW,285,12.0,21.0,30,0.00,,,0.00,meteohub,2013-05-04 18:06:00,
2013-05-04 11:11:00,65.8,32.5,29.82,North,357,15.0,18.0,30,0.00,,,0.00,meteohub,2013-05-04 18:11:00,
2013-05-04 11:17:00,65.8,32.7,29.82,NNW,332,11.0,18.0,30,0.00,,,0.00,meteohub,2013-05-04 18:17:00,
2013-05-04 11:22:00,66.0,32.7,29.83,NNW,335,6.0,20.0,30,0.00,,,0.00,meteohub,2013-05-04 18:22:00,
2013-05-04 11:27:00,66.2,32.7,29.82,West,277,10.0,21.0,30,0.00,,,0.00,meteohub,2013-05-04 18:27:00,
2013-05-04 11:33:00,66.4,32.7,29.82,SW,225,14.0,21.0,30,0.00,,,0.00,meteohub,2013-05-04 18:33:00,
2013-05-04 11:38:00,66.0,32.7,29.82,East,85,16.0,19.0,30,0.00,,,0.00,meteohub,2013-05-04 18:38:00,
2013-05-04 11:43:00,66.6,32.9,29.82,North,353,11.0,21.0,30,0.00,,,0.00,meteohub,2013-05-04 18:43:00,
2013-05-04 11:49:00,66.4,32.9,29.82,ENE,63,8.0,23.0,30,0.00,,,0.00,meteohub,2013-05-04 18:49:00,
2013-05-04 11:54:00,66.6,32.9,29.82,WSW,253,8.0,23.0,30,0.00,,,0.00,meteohub,2013-05-04 18:54:00,
2013-05-04 12:00:00,67.3,32.9,29.82,West,262,11.0,23.0,30,0.00,,,0.00,meteohub,2013-05-04 19:00:00,
2013-05-04 12:05:00,67.6,32.9,29.82,WSW,240,16.0,23.0,30,0.00,,,0.00,meteohub,2013-05-04 19:05:00,
2013-05-04 12:10:00,66.4,32.9,29.81,SW,228,11.0,26.0,30,0.00,,,0.00,meteohub,2013-05-04 19:10:00,
2013-05-04 12:16:00,66.7,33.1,29.81,SSW,208,11.0,26.0,30,0.00,,,0.00,meteohub,2013-05-04 19:16:00,
2013-05-04 12:21:00,66.7,33.1,29.81,South,190,5.0,26.0,30,0.00,,,0.00,meteohub,2013-05-04 19:21:00,
2013-05-04 12:26:00,67.1,33.3,29.81,NNE,30,13.0,20.0,30,0.00,,,0.00,meteohub,2013-05-04 19:26:00,
2013-05-04 12:32:00,67.3,33.3,29.81,East,99,10.0,20.0,30,0.00,,,0.00,meteohub,2013-05-04 19:32:00,
2013-05-04 12:37:00,66.7,33.3,29.81,SSW,200,12.0,24.0,30,0.00,,,0.00,meteohub,2013-05-04 19:37:00,
2013-05-04 12:42:00,67.6,33.3,29.81,North,9,9.0,24.0,30,0.00,,,0.00,meteohub,2013-05-04 19:42:00,
2013-05-04 12:47:00,68.2,33.4,29.81,NNW,328,8.0,24.0,30,0.00,,,0.00,meteohub,2013-05-04 19:47:00,
2013-05-04 12:52:00,67.3,33.4,29.81,NNW,345,7.0,24.0,30,0.00,,,0.00,meteohub,2013-05-04 19:52:00,
2013-05-04 12:57:00,67.5,33.4,29.80,North,351,7.0,24.0,30,0.00,,,0.00,meteohub,2013-05-04 19:57:00,
2013-05-04 13:02:00,66.9,33.4,29.80,SE,143,18.0,24.0,30,0.00,,,0.00,meteohub,2013-05-04 20:02:00,
2013-05-04 13:07:00,67.1,33.6,29.80,NNW,333,9.0,23.0,30,0.00,,,0.00,meteohub,2013-05-04 20:07:00,
2013-05-04 13:12:00,67.3,33.6,29.79,WSW,249,13.0,23.0,30,0.00,,,0.00,meteohub,2013-05-04 20:12:00,
2013-05-04 13:17:00,67.3,33.6,29.79,ENE,75,8.0,23.0,30,0.00,,,0.00,meteohub,2013-05-04 20:17:00,
2013-05-04 13:22:00,66.9,33.6,29.80,WSW,257,16.0,22.0,30,0.00,,,0.00,meteohub,2013-05-04 20:22:00,
2013-05-04 13:27:00,67.3,33.6,29.79,East,89,7.0,20.0,30,0.00,,,0.00,meteohub,2013-05-04 20:27:00,
2013-05-04 13:32:00,67.5,33.6,29.79,SE,127,8.0,24.0,30,0.00,,,0.00,meteohub,2013-05-04 20:32:00,
2013-05-04 13:37:00,67.3,33.6,29.79,NNE,23,11.0,24.0,30,0.00,,,0.00,meteohub,2013-05-04 20:37:00,
2013-05-04 13:42:00,67.5,33.6,29.79,WSW,250,9.0,22.0,30,0.00,,,0.00,meteohub,2013-05-04 20:42:00,
2013-05-04 13:47:00,66.9,33.8,29.78,SW,217,7.0,22.0,30,0.00,,,0.00,meteohub,2013-05-04 20:47:00,
2013-05-04 13:52:00,66.6,33.8,29.79,ENE,75,5.0,23.0,30,0.00,,,0.00,meteohub,2013-05-04 20:52:00,
2013-05-04 13:57:00,66.6,34.0,29.78,East,79,10.0,25.0,30,0.00,,,0.00,meteohub,2013-05-04 20:57:00,
2013-05-04 14:02:00,66.4,34.0,29.78,West,259,16.0,26.0,30,0.00,,,0.00,meteohub,2013-05-04 21:02:00,
2013-05-04 14:07:00,66.7,34.0,29.79,ESE,118,10.0,26.0,30,0.00,,,0.00,meteohub,2013-05-04 21:07:00,
2013-05-04 14:13:00,66.2,34.2,29.78,WSW,255,10.0,23.0,30,0.00,,,0.00,meteohub,2013-05-04 21:13:00,
2013-05-04 14:18:00,66.6,34.2,29.78,ENE,58,7.0,23.0,30,0.00,,,0.00,meteohub,2013-05-04 21:18:00,
2013-05-04 14:24:00,65.3,34.2,29.78,NE,41,13.0,25.0,30,0.00,,,0.00,meteohub,2013-05-04 21:24:00,
2013-05-04 14:29:00,64.9,34.3,29.78,SW,222,12.0,25.0,30,0.00,,,0.00,meteohub,2013-05-04 21:29:00,
2013-05-04 14:35:00,65.7,34.3,29.78,West,259,12.0,28.0,30,0.00,,,0.00,meteohub,2013-05-04 21:35:00,
2013-05-04 14:40:00,65.1,34.3,29.78,SSW,203,20.0,28.0,30,0.00,,,0.00,meteohub,2013-05-04 21:40:00,
2013-05-04 14:46:00,65.5,34.5,29.77,NW,310,12.0,28.0,30,0.00,,,0.00,meteohub,2013-05-04 21:46:00,
2013-05-04 14:51:00,64.9,34.5,29.77,SW,232,15.0,28.0,30,0.00,,,0.00,meteohub,2013-05-04 21:51:00,
2013-05-04 14:57:00,64.8,34.5,29.77,ESE,105,14.0,28.0,30,0.00,,,0.00,meteohub,2013-05-04 21:57:00,
2013-05-04 15:02:00,63.9,34.7,29.77,SW,225,19.0,31.0,30,0.00,,,0.00,meteohub,2013-05-04 22:02:00,
2013-05-04 15:07:00,64.0,35.4,29.76,WNW,300,11.0,31.0,31,0.00,,,0.00,meteohub,2013-05-04 22:07:00,
2013-05-04 15:12:00,64.8,35.6,29.76,East,99,11.0,31.0,31,0.00,,,0.00,meteohub,2013-05-04 22:12:00,
2013-05-04 15:17:00,63.5,35.6,29.76,South,188,11.0,25.0,31,0.00,,,0.00,meteohub,2013-05-04 22:17:00,
2013-05-04 15:22:00,63.1,35.6,29.76,WSW,242,22.0,25.0,31,0.00,,,0.00,meteohub,2013-05-04 22:22:00,
2013-05-04 15:27:00,63.1,35.8,29.75,NW,304,13.0,26.0,31,0.00,,,0.00,meteohub,2013-05-04 22:27:00,
2013-05-04 15:32:00,63.0,35.8,29.75,West,276,28.0,28.0,31,0.00,,,0.00,meteohub,2013-05-04 22:32:00,
2013-05-04 15:37:00,63.1,35.8,29.75,North,5,13.0,30.0,31,0.00,,,0.00,meteohub,2013-05-04 22:37:00,
2013-05-04 15:42:00,62.2,36.0,29.75,NE,34,16.0,30.0,31,0.00,,,0.00,meteohub,2013-05-04 22:42:00,
2013-05-04 15:47:00,62.4,36.0,29.75,WSW,253,12.0,30.0,31,0.00,,,0.00,meteohub,2013-05-04 22:47:00,
2013-05-04 15:49:00,62.2,36.0,29.75,NW,304,26.0,30.0,31,0.00,,,0.00,meteohub,2013-05-04 22:49:00,
2013-05-04 15:55:00,61.3,36.1,29.75,NW,326,26.0,30.0,31,0.00,,,0.00,meteohub,2013-05-04 22:55:00,
2013-05-04 16:00:00,61.3,36.1,29.74,SW,233,18.0,30.0,31,0.00,,,0.00,meteohub,2013-05-04 23:00:00,
2013-05-04 16:06:00,61.2,36.9,29.74,North,354,26.0,36.0,32,0.00,,,0.00,meteohub,2013-05-04 23:06:00,
2013-05-04 16:11:00,61.0,37.0,29.74,ENE,72,28.0,36.0,32,0.00,,,0.00,meteohub,2013-05-04 23:11:00,
2013-05-04 16:17:00,60.4,37.2,29.73,West,281,25.0,36.0,32,0.00,,,0.00,meteohub,2013-05-04 23:17:00,
2013-05-04 16:22:00,60.6,37.2,29.73,WNW,287,20.0,31.0,32,0.00,,,0.00,meteohub,2013-05-04 23:22:00,
2013-05-04 16:27:00,60.3,37.2,29.73,ESE,121,21.0,31.0,32,0.00,,,0.00,meteohub,2013-05-04 23:27:00,
2013-05-04 16:32:00,60.3,37.4,29.74,ENE,67,22.0,36.0,32,0.00,,,0.00,meteohub,2013-05-04 23:32:00,
2013-05-04 16:37:00,60.3,37.4,29.74,SSW,194,22.0,36.0,32,0.00,,,0.00,meteohub,2013-05-04 23:37:00,
2013-05-04 16:42:00,60.1,37.6,29.74,South,184,12.0,33.0,32,0.00,,,0.00,meteohub,2013-05-04 23:42:00,
2013-05-04 16:48:00,60.1,37.6,29.74,SW,217,13.0,36.0,32,0.00,,,0.00,meteohub,2013-05-04 23:48:00,
2013-05-04 16:53:00,60.1,37.6,29.73,WSW,250,24.0,36.0,32,0.00,,,0.00,meteohub,2013-05-04 23:53:00,
2013-05-04 16:58:00,60.1,37.6,29.73,South,184,18.0,39.0,32,0.00,,,0.00,meteohub,2013-05-04 23:58:00,
2013-05-04 17:04:00,59.4,38.5,29.73,SSW,195,17.0,39.0,33,0.00,,,0.00,meteohub,2013-05-05 00:04:00,
2013-05-04 17:09:00,59.2,38.5,29.73,East,98,21.0,40.0,33,0.00,,,0.00,meteohub,2013-05-05 00:09:00,
2013-05-04 17:15:00,58.6,38.7,29.73,WNW,300,10.0,40.0,33,0.00,,,0.00,meteohub,2013-05-05 00:15:00,
2013-05-04 17:20:00,58.1,38.8,29.73,NW,305,21.0,40.0,33,0.00,,,0.00,meteohub,2013-05-05 00:20:00,
2013-05-04 17:25:00,58.1,38.8,29.73,North,356,24.0,40.0,33,0.00,,,0.00,meteohub,2013-05-05 00:25:00,
2013-05-04 17:31:00,57.7,38.8,29.73,SW,217,20.0,40.0,33,0.00,,,0.00,meteohub,2013-05-05 00:31:00,
2013-05-04 17:36:00,57.0,38.8,29.73,North,359,20.0,38.0,33,0.00,,,0.00,meteohub,2013-05-05 00:36:00,
2013-05-04 17:42:00,56.8,38.8,29.73,SE,131,21.0,38.0,33,0.00,,,0.00,meteohub,2013-05-05 00:42:00,
2013-05-04 17:47:00,56.7,38.8,29.73,WSW,255,30.0,38.0,33,0.00,,,0.00,meteohub,2013-05-05 00:47:00,
2013-05-04 17:52:00,56.5,39.0,29.73,NNE,30,25.0,37.0,33,0.00,,,0.00,meteohub,2013-05-05 00:52:00,
2013-05-04 17:57:00,56.1,39.0,29.73,ENE,72,19.0,37.0,33,0.00,,,0.00,meteohub,2013-05-05 00:57:00,
2013-05-04 18:02:00,55.8,39.0,29.73,NE,45,15.0,36.0,33,0.00,,,0.00,meteohub,2013-05-05 01:02:00,
2013-05-04 18:07:00,55.8,39.2,29.74,WNW,285,20.0,32.0,33,0.00,,,0.00,meteohub,2013-05-05 01:07:00,
2013-05-04 18:13:00,55.4,39.2,29.74,SW,221,24.0,34.0,33,0.00,,,0.00,meteohub,2013-05-05 01:13:00,
2013-05-04 18:18:00,55.2,39.2,29.74,WNW,291,18.0,35.0,33,0.00,,,0.00,meteohub,2013-05-05 01:18:00,
2013-05-04 18:24:00,54.9,39.2,29.74,WSW,250,19.0,35.0,33,0.00,,,0.00,meteohub,2013-05-05 01:24:00,
2013-05-04 18:29:00,54.7,39.2,29.74,WSW,252,27.0,35.0,33,0.00,,,0.00,meteohub,2013-05-05 01:29:00,
2013-05-04 18:35:00,54.1,39.2,29.74,WSW,239,20.0,31.0,33,0.00,,,0.00,meteohub,2013-05-05 01:35:00,
2013-05-04 18:40:00,54.0,39.4,29.74,NW,304,16.0,31.0,33,0.00,,,0.00,meteohub,2013-05-05 01:40:00,
2013-05-04 18:45:00,53.4,39.4,29.74,NW,319,23.0,31.0,33,0.00,,,0.00,meteohub,2013-05-05 01:45:00,
2013-05-04 18:51:00,52.9,39.4,29.74,WSW,239,21.0,30.0,33,0.00,,,0.00,meteohub,2013-05-05 01:51:00,
2013-05-04 18:56:00,52.3,39.4,29.74,NNE,15,10.0,32.0,33,0.00,,,0.00,meteohub,2013-05-05 01:56:00,
2013-05-04 19:02:00,51.6,39.6,29.74,West,280,18.0,32.0,33,0.00,,,0.00,meteohub,2013-05-05 02:02:00,
2013-05-04 19:07:00,51.3,39.4,29.74,SW,224,19.0,32.0,33,0.00,,,0.00,meteohub,2013-05-05 02:07:00,
2013-05-04 19:12:00,50.5,39.4,29.75,SW,224,25.0,31.0,33,0.00,,,0.00,meteohub,2013-05-05 02:12:00,
2013-05-04 19:18:00,49.8,39.4,29.75,East,91,18.0,34.0,33,0.00,,,0.00,meteohub,2013-05-05 02:18:00,
2013-05-04 19:23:00,49.5,39.4,29.75,WSW,240,23.0,34.0,33,0.00,,,0.00,meteohub,2013-05-05 02:23:00,
2013-05-04 19:29:00,49.5,39.2,29.75,NNW,333,18.0,34.0,33,0.00,,,0.00,meteohub,2013-05-05 02:29:00,
2013-05-04 19:34:00,49.3,39.2,29.75,SE,143,18.0,33.0,33,0.00,,,0.00,meteohub,2013-05-05 02:34:00,
2013-05-04 19:39:00,49.3,39.2,29.76,NNE,22,24.0,33.0,33,0.00,,,0.00,meteohub,2013-05-05 02:39:00,
2013-05-04 19:45:00,49.3,39.2,29.76,North,351,24.0,35.0,33,0.00,,,0.00,meteohub,2013-05-05 02:45:00,
2013-05-04 19:50:00,49.1,39.2,29.76,SSW,211,18.0,35.0,33,0.00,,,0.00,meteohub,2013-05-05 02:50:00,
2013-05-04 19:55:00,48.9,39.0,29.76,West,263,24.0,32.0,33,0.00,,,0.00,meteohub,2013-05-05 02:55:00,
2013-05-04 20:01:00,48.9,39.0,29.76,NW,325,14.0,33.0,33,0.00,,,0.00,meteohub,2013-05-05 03:01:00,
2013-05-04 20:06:00,48.7,38.3,29.76,NNW,340,20.0,34.0,32,0.00,,,0.00,meteohub,2013-05-05 03:06:00,
2013-05-04 20:11:00,48.7,38.1,29.76,NE,56,24.0,34.0,32,0.00,,,0.00,meteohub,2013-05-05 03:11:00,
2013-05-04 20:17:00,48.6,38.1,29.76,WSW,248,19.0,34.0,32,0.00,,,0.00,meteohub,2013-05-05 03:17:00,
2013-05-04 20:22:00,48.6,38.1,29.77,ENE,77,25.0,32.0,32,0.00,,,0.00,meteohub,2013-05-05 03:22:00,
2013-05-04 20:27:00,48.6,38.1,29.77,South,170,21.0,33.0,32,0.00,,,0.00,meteohub,2013-05-05 03:27:00,
2013-05-04 20:32:00,48.6,37.9,29.77,WSW,252,19.0,33.0,32,0.00,,,0.00,meteohub,2013-05-05 03:32:00,
2013-05-04 20:37:00,48.4,37.9,29.77,East,82,18.0,33.0,32,0.00,,,0.00,meteohub,2013-05-05 03:37:00,
2013-05-04 20:42:00,48.4,37.9,29.77,NNW,335,19.0,33.0,32,0.00,,,0.00,meteohub,2013-05-05 03:42:00,
2013-05-04 20:47:00,48.6,37.8,29.78,WSW,243,27.0,33.0,32,0.00,,,0.00,meteohub,2013-05-05 03:47:00,
2013-05-04 20:52:00,48.6,37.6,29.78,SW,235,23.0,33.0,32,0.00,,,0.00,meteohub,2013-05-05 03:52:00,
2013-05-04 20:57:00,48.7,37.6,29.78,West,280,20.0,33.0,32,0.00,,,0.00,meteohub,2013-05-05 03:57:00,
2013-05-04 21:01:00,48.6,37.6,29.78,SW,233,24.0,30.0,32,0.00,,,0.00,meteohub,2013-05-05 04:01:00,
2013-05-04 21:02:00,48.6,37.6,29.79,NW,325,21.0,30.0,32,0.00,,,0.00,meteohub,2013-05-05 04:02:00,
2013-05-04 21:04:00,48.6,37.6,29.79,ESE,117,20.0,30.0,32,0.00,,,0.00,meteohub,2013-05-05 04:04:00,
2013-05-04 21:05:00,48.6,37.6,29.78,NW,314,25.0,29.0,32,0.00,,,0.00,meteohub,2013-05-05 04:05:00,
2013-05-04 21:11:00,48.7,37.6,29.79,WNW,291,20.0,29.0,32,0.00,,,0.00,meteohub,2013-05-05 04:11:00,
2013-05-04 21:16:00,48.7,37.4,29.79,SE,127,22.0,29.0,32,0.00,,,0.00,meteohub,2013-05-05 04:16:00,
2013-05-04 21:21:00,48.9,37.4,29.79,SW,217,12.0,31.0,32,0.00,,,0.00,meteohub,2013-05-05 04:21:00,
2013-05-04 21:27:00,48.9,37.4,29.79,SSW,205,28.0,31.0,32,0.00,,,0.00,meteohub,2013-05-05 04:27:00,
2013-05-04 21:32:00,48.9,37.2,29.79,SW,224,25.0,32.0,32,0.00,,,0.00,meteohub,2013-05-05 04:32:00,
2013-05-04 21:37:00,48.9,37.2,29.80,NNW,335,21.0,32.0,32,0.00,,,0.00,meteohub,2013-05-05 04:37:00,
2013-05-04 21:43:00,48.7,36.3,29.79,West,270,15.0,32.0,31,0.00,,,0.00,meteohub,2013-05-05 04:43:00,
2013-05-04 21:48:00,48.6,36.1,29.79,WSW,245,18.0,33.0,31,0.00,,,0.00,meteohub,2013-05-05 04:48:00,
2013-05-04 21:54:00,48.2,36.1,29.79,SW,222,23.0,33.0,31,0.00,,,0.00,meteohub,2013-05-05 04:54:00,
2013-05-04 21:59:00,47.8,36.0,29.79,WSW,245,19.0,33.0,31,0.00,,,0.00,meteohub,2013-05-05 04:59:00,
2013-05-04 22:05:00,47.7,36.0,29.79,West,273,23.0,33.0,31,0.00,,,0.00,meteohub,2013-05-05 05:05:00,
2013-05-04 22:10:00,47.5,35.8,29.79,NNW,328,17.0,33.0,31,0.00,,,0.00,meteohub,2013-05-05 05:10:00,
2013-05-04 22:16:00,47.5,35.8,29.80,West,273,14.0,34.0,31,0.00,,,0.00,meteohub,2013-05-05 05:16:00,
2013-05-04 22:21:00,47.1,35.6,29.79,WNW,288,23.0,34.0,31,0.00,,,0.00,meteohub,2013-05-05 05:21:00,
2013-05-04 22:27:00,46.2,35.6,29.80,WSW,243,28.0,34.0,31,0.00,,,0.00,meteohub,2013-05-05 05:27:00,
2013-05-04 22:32:00,45.9,35.4,29.80,SW,233,22.0,34.0,31,0.00,,,0.00,meteohub,2013-05-05 05:32:00,
2013-05-04 22:37:00,45.9,35.2,29.80,NW,307,26.0,30.0,31,0.00,,,0.00,meteohub,2013-05-05 05:37:00,
2013-05-04 22:42:00,46.0,35.2,29.80,SSW,198,21.0,29.0,31,0.00,,,0.00,meteohub,2013-05-05 05:42:00,
2013-05-04 22:47:00,46.0,35.1,29.79,WSW,242,25.0,30.0,31,0.00,,,0.00,meteohub,2013-05-05 05:47:00,
2013-05-04 22:53:00,45.7,35.1,29.80,ENE,57,17.0,30.0,31,0.00,,,0.00,meteohub,2013-05-05 05:53:00,
2013-05-04 22:58:00,44.4,35.1,29.80,NNW,333,13.0,34.0,31,0.00,,,0.00,meteohub,2013-05-05 05:58:00,
2013-05-04 23:04:00,43.5,35.1,29.80,West,269,27.0,34.0,31,0.00,,,0.00,meteohub,2013-05-05 06:04:00,
2013-05-04 23:09:00,43.3,34.9,29.80,ENE,60,16.0,35.0,31,0.00,,,0.00,meteohub,2013-05-05 06:09:00,
2013-05-04 23:15:00,43.5,34.9,29.80,SW,235,29.0,35.0,31,0.00,,,0.00,meteohub,2013-05-05 06:15:00,
2013-05-04 23:20:00,43.5,34.9,29.80,West,280,18.0,34.0,31,0.00,,,0.00,meteohub,2013-05-05 06:20:00,
2013-05-04 23:25:00,43.0,34.7,29.80,WSW,249,17.0,36.0,31,0.00,,,0.00,meteohub,2013-05-05 06:25:00,
2013-05-04 23:31:00,42.6,34.5,29.81,SSW,208,14.0,36.0,31,0.00,,,0.00,meteohub,2013-05-05 06:31:00,
2013-05-04 23:36:00,42.6,34.5,29.81,WSW,238,32.0,32.0,31,0.00,,,0.00,meteohub,2013-05-05 06:36:00,
2013-05-04 23:41:00,43.0,34.3,29.80,SW,231,23.0,32.0,31,0.00,,,0.00,meteohub,2013-05-05 06:41:00,
2013-05-04 23:47:00,42.6,34.3,29.80,SW,236,22.0,32.0,31,0.00,,,0.00,meteohub,2013-05-05 06:47:00,
2013-05-04 23:52:00,43.0,34.3,29.80,North,354,25.0,32.0,31,0.00,,,0.00,meteohub,2013-05-05 06:52:00,
2013-05-04 23:57:00,43.5,34.2,29.80,SW,215,13.0,32.0,31,0.00,,,0.00,meteohub,2013-05-05 06:57:00,